TimePDT,TemperatureF,Dew PointF,Humidity,Sea Level PressureIn,VisibilityMPH,Wind Direction,Wind SpeedMPH,Gust SpeedMPH,PrecipitationIn,Events,Conditions,WindDirDegrees,DateUTC
12:56 AM,72.0,41.0,33,29.90,10.0,Calm,Calm,-,N/A,,Clear,0,2013-09-12 07:56:00
1:56 AM,70.0,42.1,36,29.91,10.0,ESE,3.5,-,N/A,,Clear,120,2013-09-12 08:56:00
2:56 AM,70.0,42.1,36,29.91,10.0,Calm,Calm,-,N/A,,Clear,0,2013-09-12 09:56:00
3:56 AM,68.0,42.1,39,29.91,10.0,SSW,3.5,-,N/A,,Clear,210,2013-09-12 10:56:00
4:56 AM,66.0,43.0,43,29.92,10.0,SSW,5.8,-,N/A,,Clear,200,2013-09-12 11:56:00
5:56 AM,64.9,43.0,45,29.92,10.0,Calm,Calm,-,N/A,,Clear,0,2013-09-12 12:56:00
6:56 AM,66.0,44.1,45,29.94,10.0,Calm,Calm,-,N/A,,Clear,0,2013-09-12 13:56:00
7:56 AM,70.0,45.0,41,29.94,10.0,Calm,Calm,-,N/A,,Clear,0,2013-09-12 14:56:00
8:56 AM,72.0,48.9,44,29.95,10.0,Calm,Calm,-,N/A,,Clear,0,2013-09-12 15:56:00
9:56 AM,77.0,48.0,36,29.94,10.0,Calm,Calm,-,N/A,,Clear,0,2013-09-12 16:56:00
10:56 AM,81.0,46.9,30,29.93,10.0,Calm,Calm,-,N/A,,Clear,0,2013-09-12 17:56:00
11:56 AM,84.0,46.9,27,29.91,10.0,Variable,4.6,-,N/A,,Clear,0,2013-09-12 18:56:00
12:56 PM,89.1,45.0,22,29.88,10.0,WNW,4.6,-,N/A,,Clear,290,2013-09-12 19:56:00
1:56 PM,93.0,41.0,16,29.86,10.0,Calm,Calm,-,N/A,,Clear,0,2013-09-12 20:56:00
2:56 PM,93.9,41.0,16,29.83,10.0,Calm,Calm,-,N/A,,Clear,0,2013-09-12 21:56:00
3:56 PM,96.1,45.0,17,29.81,10.0,WNW,10.4,-,N/A,,Clear,300,2013-09-12 22:56:00
4:56 PM,95.0,46.0,19,29.80,10.0,WNW,9.2,-,N/A,,Clear,290,2013-09-12 23:56:00
5:56 PM,91.9,46.9,21,29.80,10.0,West,12.7,-,N/A,,Clear,280,2013-09-13 00:56:00
6:56 PM,88.0,48.0,25,29.80,10.0,West,6.9,-,N/A,,Clear,280,2013-09-13 01:56:00
7:56 PM,84.0,48.0,28,29.81,10.0,West,6.9,-,N/A,,Clear,260,2013-09-13 02:56:00
8:56 PM,82.0,48.9,31,29.81,10.0,West,8.1,-,N/A,,Clear,260,2013-09-13 03:56:00
9:56 PM,79.0,48.9,35,29.81,10.0,SW,6.9,-,N/A,,Clear,230,2013-09-13 04:56:00
10:56 PM,77.0,48.9,37,29.81,10.0,SSW,8.1,-,N/A,,Clear,210,2013-09-13 05:56:00
11:56 PM,75.9,48.9,38,29.81,10.0,South,4.6,-,N/A,,Clear,190,2013-09-13 06:56:00